^^
Station Historical Data
Daily Summary for October 20, 2017 Units:  Metric    English   Both
« Previous Day
Next Day »
Daily Weekly Monthly Yearly Custom
  High: Low: Average:
Temperature: 24 °C 10.1 °C 15.8 °C
Dew Point: 6.7 °C -6.2 °C 3.9 °C
Humidity: 78% 14% 51%
Wind Speed: 32km/h 4.7km/h 15.6km/h
Wind Gust: 33.8km/h - -
Wind- - SSW
Pressure: 1019.5 hPa 1015.5 hPa -
Precipitation: 0 mm    
Historical Graphs
 
 
Tabular Data for October 20, 2017
Time Temperature Dew Point Pressure Wind Wind Speed Wind Gust Humidity Rainfall Rate (Hourly) solar Conditions
00:01 13.3 °C 6.2 °C 1016.5 hPa SSW 17.7 km/h 24.1 km/h 62% 0 mm 0.0 W/m2
00:06 13.2 °C 6.1 °C 1016.5 hPa SSW 13 km/h 20.9 km/h 62% 0 mm 0.0 W/m2
00:16 13.1 °C 6 °C 1016.5 hPa SSW 16.3 km/h 20.9 km/h 62% 0 mm 0.0 W/m2
00:21 13 °C 6.1 °C 1016.5 hPa SSW 16.3 km/h 22.5 km/h 63% 0 mm 0.0 W/m2
00:26 12.9 °C 5.8 °C 1016.1 hPa SSW 13 km/h 17.7 km/h 62% 0 mm 0.0 W/m2
00:36 12.8 °C 5.9 °C 1016.1 hPa SSW 17.7 km/h 24.1 km/h 63% 0 mm 0.0 W/m2
00:41 12.7 °C 6.1 °C 1016.1 hPa SSW 13 km/h 17.7 km/h 64% 0 mm 0.0 W/m2
00:51 12.6 °C 6 °C 1016.1 hPa SSW 19.5 km/h 22.5 km/h 64% 0 mm 0.0 W/m2
00:56 12.6 °C 6 °C 1016.5 hPa SSW 16.3 km/h 20.9 km/h 64% 0 mm 0.0 W/m2
01:06 12.5 °C 5.9 °C 1016.1 hPa SSW 19.5 km/h 25.7 km/h 64% 0 mm 0.0 W/m2
01:12 12.5 °C 6.1 °C 1016.1 hPa SSW 22.7 km/h 24.1 km/h 65% 0 mm 0.0 W/m2
01:21 12.4 °C 6 °C 1016.1 hPa SSW 14.3 km/h 22.5 km/h 65% 0 mm 0.0 W/m2
01:32 12.3 °C 6.1 °C 1016.1 hPa SSW 17.7 km/h 22.5 km/h 66% 0 mm 0.0 W/m2
01:37 12.2 °C 6 °C 1016.1 hPa SSW 14.3 km/h 17.7 km/h 66% 0 mm 0.0 W/m2
01:46 12 °C 6.1 °C 1015.8 hPa SW 13 km/h 17.7 km/h 67% 0 mm 0.0 W/m2
01:51 12 °C 6.1 °C 1015.8 hPa SW 11.1 km/h 17.7 km/h 67% 0 mm 0.0 W/m2
01:56 11.9 °C 6 °C 1015.5 hPa SW 13 km/h 16.1 km/h 67% 0 mm 0.0 W/m2
02:02 11.9 °C 6.2 °C 1015.8 hPa SW 13 km/h 19.3 km/h 68% 0 mm 0.0 W/m2
02:07 11.8 °C 6.1 °C 1015.8 hPa SW 16.3 km/h 19.3 km/h 68% 0 mm 0.0 W/m2
02:12 11.8 °C 6.1 °C 1015.8 hPa SSW 16.3 km/h 24.1 km/h 68% 0 mm 0.0 W/m2
02:17 11.8 °C 6.1 °C 1015.8 hPa SSW 14.3 km/h 17.7 km/h 68% 0 mm 0.0 W/m2
02:26 11.7 °C 6.2 °C 1015.8 hPa SSW 14.3 km/h 22.5 km/h 69% 0 mm 0.0 W/m2
02:31 11.7 °C 6.2 °C 1015.8 hPa SSW 16.3 km/h 20.9 km/h 69% 0 mm 0.0 W/m2
02:42 11.6 °C 6.3 °C 1015.8 hPa SW 11.1 km/h 19.3 km/h 70% 0 mm 0.0 W/m2
02:47 11.6 °C 6.3 °C 1015.8 hPa SW 9.7 km/h 16.1 km/h 70% 0 mm 0.0 W/m2
02:52 11.5 °C 6.2 °C 1015.8 hPa SW 9.7 km/h 19.3 km/h 70% 0 mm 0.0 W/m2
02:57 11.5 °C 6.4 °C 1015.8 hPa SW 17.7 km/h 22.5 km/h 71% 0 mm 0.0 W/m2
03:08 11.5 °C 6.4 °C 1015.8 hPa SW 16.3 km/h 24.1 km/h 71% 0 mm 0.0 W/m2
03:17 11.4 °C 6.3 °C 1015.8 hPa SSW 14.3 km/h 22.5 km/h 71% 0 mm 0.0 W/m2
03:22 11.4 °C 6.3 °C 1016.1 hPa SSW 16.3 km/h 20.9 km/h 71% 0 mm 0.0 W/m2
03:27 11.4 °C 6.3 °C 1016.1 hPa SSW 17.7 km/h 22.5 km/h 71% 0 mm 0.0 W/m2
03:37 11.3 °C 6.4 °C 1015.8 hPa SSW 17.7 km/h 20.9 km/h 72% 0 mm 0.0 W/m2
03:47 11.3 °C 6.4 °C 1016.1 hPa SSW 19.5 km/h 24.1 km/h 72% 0 mm 0.0 W/m2
03:52 11.3 °C 6.6 °C 1016.1 hPa SSW 17.7 km/h 22.5 km/h 73% 0 mm 0.0 W/m2
03:57 11.2 °C 6.5 °C 1016.1 hPa South 22.7 km/h 22.7 km/h 73% 0 mm 0.0 W/m2
04:03 11.2 °C 6.5 °C 1016.1 hPa SSW 19.5 km/h 24.1 km/h 73% 0 mm 0.0 W/m2
04:13 11.2 °C 6.5 °C 1016.1 hPa SSW 24.1 km/h 25.7 km/h 73% 0 mm 0.0 W/m2
04:18 11.2 °C 6.5 °C 1016.1 hPa SSW 17.7 km/h 27.4 km/h 73% 0 mm 0.0 W/m2
04:27 11 °C 6.3 °C 1016.1 hPa SW 17.7 km/h 22.5 km/h 73% 0 mm 0.0 W/m2
04:32 10.9 °C 6.3 °C 1016.1 hPa SSW 16.3 km/h 19.3 km/h 73% 0 mm 0.0 W/m2
04:37 10.9 °C 6.3 °C 1016.1 hPa SSW 17.7 km/h 19.3 km/h 73% 0 mm 0.0 W/m2
04:42 10.8 °C 6.2 °C 1016.1 hPa SSW 13 km/h 17.7 km/h 73% 0 mm 0.0 W/m2
04:47 10.8 °C 6.4 °C 1016.1 hPa SSW 17.7 km/h 20.9 km/h 74% 0 mm 0.0 W/m2
04:52 10.7 °C 6.3 °C 1016.5 hPa SSW 16.3 km/h 20.9 km/h 74% 0 mm 0.0 W/m2
04:57 10.7 °C 6.3 °C 1016.5 hPa SSW 17.7 km/h 19.3 km/h 74% 0 mm 0.0 W/m2
05:02 10.6 °C 6.4 °C 1016.5 hPa SW 11.1 km/h 17.7 km/h 75% 0 mm 0.0 W/m2
05:07 10.6 °C 6.4 °C 1016.5 hPa SSW 13 km/h 17.7 km/h 75% 0 mm 0.0 W/m2
05:18 10.5 °C 6.3 °C 1016.8 hPa SSW 13 km/h 17.7 km/h 75% 0 mm 0.0 W/m2
05:28 10.4 °C 6.4 °C 1016.8 hPa SW 13 km/h 17.7 km/h 76% 0 mm 0.0 W/m2
05:33 10.3 °C 6.3 °C 1016.8 hPa SW 16.3 km/h 17.7 km/h 76% 0 mm 0.0 W/m2
05:38 10.3 °C 6.3 °C 1016.8 hPa SSW 11.1 km/h 17.7 km/h 76% 0 mm 0.0 W/m2
05:48 10.3 °C 6.4 °C 1016.8 hPa SW 14.3 km/h 17.7 km/h 77% 0 mm 0.0 W/m2
05:53 10.2 °C 6.3 °C 1016.8 hPa SW 17.7 km/h 19.3 km/h 77% 0 mm 0.0 W/m2
05:58 10.2 °C 6.3 °C 1016.8 hPa SW 11.1 km/h 17.7 km/h 77% 0 mm 0.0 W/m2
06:08 10.1 °C 6.4 °C 1016.8 hPa SSW 9.7 km/h 19.3 km/h 78% 0 mm 5.0 W/m2
06:13 10.1 °C 6.4 °C 1016.8 hPa SSW 14.3 km/h 17.7 km/h 78% 0 mm 7.0 W/m2
06:19 10.1 °C 6.4 °C 1016.8 hPa SW 20.9 km/h 20.9 km/h 78% 0 mm 11.0 W/m2
06:42 10.3 °C 6.6 °C 1017.5 hPa SW 16.3 km/h 22.5 km/h 78% 0 mm 44.0 W/m2
06:53 10.5 °C 6.6 °C 1017.5 hPa SW 11.1 km/h 20.9 km/h 77% 0 mm 72.0 W/m2
07:05 10.7 °C 6.6 °C 1017.5 hPa SW 20.9 km/h 20.9 km/h 76% 0 mm 111.0 W/m2
07:34 11.5 °C 6.6 °C 1017.8 hPa SW 20.9 km/h 22.5 km/h 72% 0 mm 237.0 W/m2
07:49 11.8 °C 6.7 °C 1017.8 hPa SW 14.3 km/h 22.5 km/h 71% 0 mm 292.0 W/m2
08:19 12.8 °C 6.6 °C 1018.2 hPa SSW 16.3 km/h 24.1 km/h 66% 0 mm 401.0 W/m2
08:51 13.9 °C 6.3 °C 1018.2 hPa SSW 16.3 km/h 24.1 km/h 60% 0 mm 501.0 W/m2
09:07 14.9 °C 6.2 °C 1018.2 hPa SW 19.5 km/h 20.9 km/h 56% 0 mm 554.0 W/m2
09:23 15.8 °C 5.7 °C 1018.2 hPa SSW 17.7 km/h 20.9 km/h 51% 0 mm 603.0 W/m2
09:40 17.1 °C 5.4 °C 1018.2 hPa SW 24.1 km/h 29 km/h 46% 0 mm 663.0 W/m2
09:55 17.8 °C 5.1 °C 1018.2 hPa SW 22.7 km/h 22.7 km/h 43% 0 mm 705.0 W/m2
10:11 18.1 °C 5 °C 1018.5 hPa South 19.5 km/h 29 km/h 42% 0 mm 744.0 W/m2
10:25 18.8 °C 4.9 °C 1018.5 hPa South 11.1 km/h 22.5 km/h 40% 0 mm 780.0 W/m2
10:40 18.9 °C 4.6 °C 1018.2 hPa South 20.9 km/h 27.4 km/h 39% 0 mm 810.0 W/m2
10:54 19.5 °C 4.4 °C 1018.2 hPa SW 16.3 km/h 22.5 km/h 37% 0 mm 840.0 W/m2
11:19 20.3 °C 4.3 °C 1018.2 hPa SSW 7.9 km/h 22.5 km/h 35% 0 mm 882.0 W/m2
11:31 20.3 °C 4.3 °C 1017.8 hPa SSW 14.3 km/h 20.9 km/h 35% 0 mm 895.0 W/m2
11:44 20.5 °C 4.5 °C 1017.8 hPa South 17.7 km/h 20.9 km/h 35% 0 mm 912.0 W/m2
11:54 20.7 °C 4.3 °C 1017.8 hPa South 11.1 km/h 19.3 km/h 34% 0 mm 921.0 W/m2
12:05 21.3 °C 4.4 °C 1017.8 hPa South 20.9 km/h 30.6 km/h 33% 0 mm 925.0 W/m2
12:19 21.6 °C 4.2 °C 1017.8 hPa South 9.7 km/h 22.5 km/h 32% 0 mm 932.0 W/m2
12:29 22 °C 4.5 °C 1017.5 hPa South 16.3 km/h 19.3 km/h 32% 0 mm 933.0 W/m2
12:38 22 °C 4.1 °C 1017.5 hPa SSW 13 km/h 30.6 km/h 31% 0 mm 932.0 W/m2
12:47 21.8 °C 3.9 °C 1017.5 hPa SSW 16.3 km/h 20.9 km/h 31% 0 mm 935.0 W/m2
12:57 22.3 °C 3.9 °C 1017.2 hPa South 4.7 km/h 16.1 km/h 30% 0 mm 932.0 W/m2
13:06 22.8 °C 3.8 °C 1017.2 hPa South 16.3 km/h 30.6 km/h 29% 0 mm 928.0 W/m2
13:17 22.7 °C 3.7 °C 1016.8 hPa South 16.3 km/h 25.7 km/h 29% 0 mm 919.0 W/m2
13:23 22.6 °C 4.1 °C 1016.8 hPa South 7.9 km/h 16.1 km/h 30% 0 mm 914.0 W/m2
13:28 22.8 °C 3.8 °C 1016.8 hPa South 19.5 km/h 19.5 km/h 29% 0 mm 907.0 W/m2
13:36 23 °C 3.5 °C 1016.8 hPa SSE 20.9 km/h 24.1 km/h 28% 0 mm 902.0 W/m2
13:41 22.9 °C 3.4 °C 1016.8 hPa South 16.3 km/h 16.3 km/h 28% 0 mm 895.0 W/m2
13:46 23 °C 3.5 °C 1016.8 hPa SSW 14.3 km/h 19.3 km/h 28% 0 mm 888.0 W/m2
13:58 23.1 °C 3.6 °C 1016.8 hPa SW 27.4 km/h 30.6 km/h 28% 0 mm 877.0 W/m2
14:07 23.6 °C 3.5 °C 1016.5 hPa WSW 16.3 km/h 24.1 km/h 27% 0 mm 856.0 W/m2
14:12 23.4 °C 3.3 °C 1016.5 hPa South 16.3 km/h 20.9 km/h 27% 0 mm 853.0 W/m2
14:20 23.1 °C 3.6 °C 1016.5 hPa SW 14.3 km/h 25.7 km/h 28% 0 mm 842.0 W/m2
14:30 23.2 °C 3.7 °C 1016.5 hPa SSW 20.9 km/h 25.7 km/h 28% 0 mm 826.0 W/m2
14:38 23 °C 3 °C 1016.5 hPa SSW 9.7 km/h 19.3 km/h 27% 0 mm 803.0 W/m2
14:55 23.3 °C 3.2 °C 1016.1 hPa SSW 14.3 km/h 16.1 km/h 27% 0 mm 768.0 W/m2
15:22 23.7 °C 3.1 °C 1016.1 hPa SSW 16.3 km/h 19.3 km/h 26% 0 mm 703.0 W/m2
16:52 24 °C -1.1 °C 1016.1 hPa SSW 30.6 km/h 30.6 km/h 19% 0 mm 425.0 W/m2
17:04 23.9 °C -0.4 °C 1016.5 hPa SSE 20.9 km/h 27.4 km/h 20% 0 mm 373.0 W/m2
17:17 23.5 °C -0.1 °C 1016.1 hPa South 16.3 km/h 24.1 km/h 21% 0 mm 338.0 W/m2
17:44 23.4 °C -2.3 °C 1016.8 hPa SSE 32 km/h 33.8 km/h 18% 0 mm 229.0 W/m2
17:56 23.2 °C -3.2 °C 1016.8 hPa SSW 19.5 km/h 24.1 km/h 17% 0 mm 183.0 W/m2
18:23 23 °C -5 °C 1016.8 hPa SSE 25.9 km/h 30.6 km/h 15% 0 mm 83.0 W/m2
18:38 22.7 °C -6.2 °C 1016.8 hPa SSE 16.3 km/h 24.1 km/h 14% 0 mm 33.0 W/m2
19:09 21.8 °C -5.1 °C 1017.2 hPa SSE 17.7 km/h 24.1 km/h 16% 0 mm 0.0 W/m2
19:23 21.4 °C -4.7 °C 1017.5 hPa SSE 11.1 km/h 19.3 km/h 17% 0 mm 0.0 W/m2
19:37 21.1 °C -4.9 °C 1017.5 hPa SSE 9.7 km/h 12.9 km/h 17% 0 mm 0.0 W/m2
20:09 20.6 °C -4.6 °C 1017.8 hPa SSE 11.1 km/h 16.1 km/h 18% 0 mm 0.0 W/m2
20:25 20.2 °C -4.2 °C 1018.2 hPa SSE 11.1 km/h 16.1 km/h 19% 0 mm 0.0 W/m2
20:38 19.6 °C -4.7 °C 1018.5 hPa SSE 6.4 km/h 8 km/h 19% 0 mm 0.0 W/m2
20:53 18.9 °C -4.6 °C 1018.5 hPa SSE 9.7 km/h 11.3 km/h 20% 0 mm 0.0 W/m2
21:14 18.9 °C -3.9 °C 1018.8 hPa SSE 9.7 km/h 12.9 km/h 21% 0 mm 0.0 W/m2
21:24 18.6 °C -4.2 °C 1018.8 hPa SSE 7.9 km/h 8 km/h 21% 0 mm 0.0 W/m2
21:44 18 °C -4.7 °C 1018.8 hPa South 9.7 km/h 14.5 km/h 21% 0 mm 0.0 W/m2
21:58 17.9 °C -1.9 °C 1019.2 hPa South 14.3 km/h 22.5 km/h 26% 0 mm 0.0 W/m2
22:04 17.7 °C -0.6 °C 1019.2 hPa South 11.1 km/h 19.3 km/h 29% 0 mm 0.0 W/m2
22:17 17.4 °C -0.4 °C 1019.2 hPa SSW 14.3 km/h 17.7 km/h 30% 0 mm 0.0 W/m2
22:28 17.2 °C -0.1 °C 1019.2 hPa SSW 7.9 km/h 16.1 km/h 31% 0 mm 0.0 W/m2
22:36 17 °C 0.2 °C 1019.5 hPa SSW 11.1 km/h 17.7 km/h 32% 0 mm 0.0 W/m2
Canyon Roadhouse, Fishriver Canyon, Namibia
Compliments of Weather Underground - 2.25 mb